This is the latest recevied weather packets stored in our database for station/object WA1OUI. If no packets are shown the sender has not sent any weather packets the latest 1 day(s).
| Time | Temp. | Humidity | Pressure | Rain* | Wind** | Luminosity | Snow |
|---|---|---|---|---|---|---|---|
| 1778059389 | 11.67° C | 94% | 1007.8 hPa | 0 mm | 0.89 m/s, 325° | 0 W/m² | - |
| 1778059086 | 11.67° C | 94% | 1007.8 hPa | 0 mm | 0.89 m/s, 334° | 0 W/m² | - |
| 1778058784 | 11.67° C | 94% | 1008 hPa | 0 mm | 0.89 m/s, 335° | 0 W/m² | - |
| 1778058482 | 11.67° C | 94% | 1008 hPa | 0 mm | 1.34 m/s, 333° | 0 W/m² | - |
| 1778058178 | 11.67° C | 94% | 1008.1 hPa | 0 mm | 0.89 m/s, 343° | 0 W/m² | - |
| 1778057875 | 11.67° C | 93% | 1007.8 hPa | 0 mm | 1.34 m/s, 336° | 0 W/m² | - |
| 1778057571 | 12.22° C | 93% | 1007.9 hPa | 0 mm | 0.89 m/s, 341° | 0 W/m² | - |
| 1778057268 | 12.22° C | 93% | 1008 hPa | 0 mm | 0.89 m/s, 336° | 0 W/m² | - |
| 1778056964 | 12.22° C | 93% | 1008 hPa | 0 mm | 0.89 m/s, 334° | 0 W/m² | - |
| 1778056661 | 12.22° C | 93% | 1008.1 hPa | 0 mm | 1.34 m/s, 334° | 0 W/m² | - |
| 1778056359 | 12.22° C | 92% | 1008.1 hPa | 0 mm | 0.89 m/s, 336° | 0 W/m² | - |
| 1778056056 | 12.22° C | 92% | 1008.2 hPa | 0 mm | 0.89 m/s, 339° | 0 W/m² | - |
| 1778055751 | 12.22° C | 92% | 1008 hPa | 0 mm | 0.89 m/s, 345° | 0 W/m² | - |
| 1778055450 | 12.22° C | 92% | 1008.1 hPa | 0 mm | 0.89 m/s, 335° | 0 W/m² | - |
| 1778055147 | 12.22° C | 91% | 1008 hPa | 0 mm | 0.89 m/s, 339° | 0 W/m² | - |
| 1778054845 | 12.22° C | 91% | 1008.1 hPa | 0 mm | 0.89 m/s, 338° | 0 W/m² | - |
| 1778054541 | 12.22° C | 91% | 1008 hPa | 0 mm | 0.89 m/s, 338° | 0 W/m² | - |
| 1778054239 | 12.22° C | 91% | 1007.9 hPa | 0 mm | 0.89 m/s, 332° | 0 W/m² | - |
| 1778053935 | 12.22° C | 91% | 1008 hPa | 0 mm | 0.89 m/s, 334° | 0 W/m² | - |
| 1778053633 | 12.22° C | 91% | 1008 hPa | 0 mm | 1.34 m/s, 351° | 0 W/m² | - |
| 1778053330 | 12.22° C | 90% | 1008 hPa | 0 mm | 1.34 m/s, 334° | 0 W/m² | - |
| 1778053028 | 12.22° C | 90% | 1008 hPa | 0 mm | 0.89 m/s, 333° | 0 W/m² | - |
| 1778052725 | 12.78° C | 90% | 1008 hPa | 0 mm | 0.89 m/s, 337° | 0 W/m² | - |
| 1778052422 | 12.78° C | 89% | 1008 hPa | 0 mm | 0.89 m/s, 352° | 0 W/m² | - |
| 1778052119 | 12.78° C | 89% | 1008.2 hPa | 0 mm | 0.89 m/s, 343° | 0 W/m² | - |
* Rain latest hour (hover to see other rain measurements)
** Current wind speed in m/s (hover to see current wind gust speed)